KA1BMF-13 Weather Reports


time (UTC)temp
C
wind
direction
speed
KPH
gust
KPH
rain 1hr
cm
rain 24hr
cm
rain mn
cm
humidity
%
barometer
mb
20260506182519 14 184 0.0 3.2 0.18 0.30 0.30 93 1008.1
20260506181520 14 154 3.2 8.0 0.18 0.28 0.28 92 1008.2
20260506180520 14 156 3.2 6.4 0.18 0.23 0.23 92 1008.1
20260506175519 14 184 3.2 8.0 0.15 0.23 0.23 92 1008.0
20260506174520 14 184 3.2 9.7 0.15 0.20 0.20 92 1008.2
20260506173520 15 165 3.2 11.3 0.18 0.18 0.18 91 1008.4
20260506172520 15 168 4.8 9.7 0.15 0.15 0.15 90 1008.7
20260506171517 15 224 3.2 9.7 0.10 0.10 0.10 89 1008.9
20260506170521 15 168 1.6 8.0 0.08 0.08 0.08 88 1009.2
20260506165521 15 190 3.2 9.7 0.05 0.05 0.05 87 1009.2
20260506164518 16 147 3.2 8.0 0.05 0.05 0.05 85 1009.2
20260506163518 16 158 4.8 8.0 0.03 0.03 0.03 82 1009.2
20260506162519 16 180 4.8 12.9 0.00 0.00 0.00 79 1009.1
20260506161519 17 186 4.8 12.9 0.00 0.00 0.00 78 1009.2
20260506160519 17 162 3.2 11.3 0.00 0.00 0.00 78 1009.2
20260506155519 17 174 4.8 12.9 0.00 0.00 0.00 78 1009.5
20260506154519 16 160 4.8 17.7 0.00 0.00 0.00 78 1009.5
20260506153540 16 153 4.8 12.9 0.00 0.00 0.00 78 1009.7
20260506152520 16 164 8.0 14.5 0.00 0.00 0.00 78 1009.5
20260506151520 16 162 4.8 12.9 0.00 0.00 0.00 78 1009.4
20260506150520 16 154 4.8 14.5 0.00 0.00 0.00 78 1009.4
20260506145540 17 152 4.8 12.9 0.00 0.00 0.00 78 1009.4
20260506144520 17 163 4.8 14.5 0.00 0.00 0.00 77 1009.4
20260506143517 17 144 8.0 14.5 0.00 0.00 0.00 77 1009.6
20260506142517 17 170 4.8 11.3 0.00 0.00 0.00 76 1009.6
20260506141521 17 150 3.2 8.0 0.00 0.00 0.00 76 1009.6
20260506140521 17 149 4.8 12.9 0.00 0.00 0.00 77 1009.7
20260506135518 17 175 4.8 14.5 0.00 0.00 0.00 78 1009.8
20260506134519 16 157 6.4 14.5 0.00 0.00 0.00 78 1009.8
20260506133539 16 166 4.8 11.3 0.00 0.00 0.00 79 1009.6
20260506132518 16 158 4.8 14.5 0.00 0.00 0.00 79 1009.5
20260506131519 16 188 1.6 11.3 0.00 0.00 0.00 80 1009.5
20260506130519 16 150 4.8 12.9 0.00 0.00 0.00 81 1009.6
20260506125519 16 158 6.4 17.7 0.00 0.00 0.00 81 1009.7
20260506124519 16 159 8.0 17.7 0.00 0.00 0.00 81 1009.8
20260506123523 16 159 4.8 9.7 0.00 0.00 0.00 81 1010.0
20260506122522 16 162 6.4 12.9 0.00 0.00 0.00 82 1010.2
20260506121557 15 167 6.4 12.9 0.00 0.00 0.00 83 1010.1
20260506120523 15 139 4.8 11.3 0.00 0.00 0.00 84 1010.0
20260506115525 15 169 4.8 8.0 0.00 0.00 0.00 85 1010.1
20260506114544 15 172 3.2 9.7 0.00 0.00 0.00 86 1010.0
20260506113524 14 164 8.0 14.5 0.00 0.00 0.00 87 1010.1
20260506112518 14 159 4.8 11.3 0.00 0.00 0.00 88 1010.1
20260506111518 14 162 4.8 11.3 0.00 0.00 0.00 88 1010.2
20260506110524 13 153 8.0 12.9 0.00 0.00 0.00 89 1010.3
20260506105541 13 162 4.8 8.0 0.00 0.00 0.00 89 1010.2
20260506104521 13 166 3.2 4.8 0.00 0.00 0.00 90 1010.1
20260506103521 13 155 3.2 6.4 0.00 0.00 0.00 90 1010.2
20260506102521 13 178 3.2 4.8 0.00 0.00 0.00 90 1010.2
20260506101522 13 209 1.6 3.2 0.00 0.00 0.00 89 1010.1
20260506100602 13 187 0.0 1.6 0.00 0.00 0.00 89 1010.1
20260506095522 13 219 1.6 3.2 0.00 0.00 0.00 89 1010.1
20260506094522 13 168 1.6 3.2 0.00 0.00 0.00 88 1010.0
20260506093542 13 183 1.6 4.8 0.00 0.00 0.00 88 1009.9
20260506092523 13 173 3.2 6.4 0.00 0.00 0.00 88 1010.0
20260506091520 13 163 4.8 9.7 0.00 0.00 0.00 88 1010.1
20260506090523 13 174 3.2 6.4 0.00 0.00 0.00 87 1010.1
20260506085520 13 207 3.2 8.0 0.00 0.00 0.00 87 1010.2
20260506084520 13 193 3.2 8.0 0.00 0.00 0.00 87 1010.2
20260506083520 13 204 3.2 9.7 0.00 0.00 0.00 87 1010.3
20260506082521 13 160 3.2 8.0 0.00 0.00 0.00 86 1010.3
20260506081524 13 166 4.8 6.4 0.00 0.00 0.00 86 1010.2
20260506080544 13 188 1.6 6.4 0.00 0.00 0.00 86 1010.2
20260506073524 14 200 3.2 8.0 0.00 0.00 0.00 85 1010.3
20260506072521 14 187 3.2 9.7 0.00 0.00 0.00 84 1010.4
20260506071619 14 175 3.2 8.0 0.00 0.00 0.00 84 1010.4
20260506070539 14 162 3.2 14.5 0.00 0.00 0.00 84 1010.3
20260506062517 14 185 3.2 8.0 0.00 0.00 0.00 83 1010.2
20260506061520 14 185 3.2 9.7 0.00 0.00 0.00 82 1010.3
20260506060520 15 202 1.6 8.0 0.00 0.00 0.00 82 1010.3
20260506050519 15 211 1.6 4.8 0.00 0.00 0.00 79 1010.6
20260506044519 16 185 1.6 6.4 0.00 0.00 0.00 77 1010.7
20260506043519 16 201 1.6 4.8 0.00 0.00 0.00 76 1010.7
20260506042519 16 174 4.8 16.1 0.00 0.00 0.00 75 1010.7
20260506041519 16 148 3.2 9.7 0.00 0.00 0.00 75 1010.7
20260506040519 16 187 3.2 12.9 0.00 0.00 0.00 74 1010.7
20260506035520 16 167 4.8 9.7 0.00 0.00 0.00 74 1010.7
20260506034517 16 168 3.2 9.7 0.00 0.00 0.00 74 1010.7
20260506033520 17 163 1.6 4.8 0.00 0.00 0.00 73 1010.7
20260506032521 17 165 4.8 14.5 0.00 0.00 0.00 72 1010.7
20260506031521 17 164 4.8 11.3 0.00 0.00 0.00 71 1010.6
20260506030518 17 163 3.2 9.7 0.00 0.00 0.00 70 1010.7
20260506025518 17 175 3.2 11.3 0.00 0.00 0.00 70 1010.7
20260506024521 17 147 4.8 12.9 0.00 0.00 0.00 70 1010.7
20260506023518 17 154 4.8 11.3 0.00 0.00 0.00 69 1010.6
20260506022539 17 162 4.8 12.9 0.00 0.00 0.00 69 1010.6
20260506021518 17 165 4.8 11.3 0.00 0.00 0.00 69 1010.5
20260506020519 17 185 3.2 8.0 0.00 0.00 0.00 69 1010.4
20260506015519 17 189 3.2 6.4 0.00 0.00 0.00 69 1010.4
20260506014519 17 183 1.6 4.8 0.00 0.00 0.00 69 1010.3
20260506013519 17 160 3.2 12.9 0.00 0.00 0.00 69 1010.2
20260506012520 17 155 3.2 11.3 0.00 0.00 0.00 69 1010.1
20260506011520 17 157 4.8 9.7 0.00 0.00 0.00 68 1009.9
20260506010520 17 169 3.2 12.9 0.00 0.00 0.00 67 1009.9
20260506005525 17 173 4.8 16.1 0.00 0.00 0.00 67 1009.7
20260506004520 17 186 3.2 11.3 0.00 0.00 0.00 66 1009.6
20260506003520 17 155 4.8 14.5 0.00 0.00 0.00 65 1009.4
20260506002518 17 179 3.2 11.3 0.00 0.00 0.00 65 1009.4
20260506001518 17 159 4.8 11.3 0.00 0.00 0.00 65 1009.2
20260506000538 17 155 4.8 11.3 0.00 0.00 0.00 65 1009.2
20260505235521 18 174 1.6 6.4 0.00 0.00 0.00 65 1009.1
20260505234519 18 186 3.2 8.0 0.00 0.00 0.00 64 1009.0
20260505233539 18 173 4.8 14.5 0.00 0.00 0.00 64 1008.9
20260505232519 18 160 6.4 12.9 0.00 0.00 0.00 63 1008.8
20260505231539 18 162 6.4 17.7 0.00 0.00 0.00 63 1008.7
20260505230517 19 154 11.3 24.1 0.00 0.00 0.00 62 1008.4
20260505225519 19 157 6.4 16.1 0.00 0.00 0.00 62 1008.4
20260505224519 19 154 6.4 16.1 0.00 0.00 0.00 62 1008.4
20260505223519 20 173 4.8 14.5 0.00 0.00 0.00 61 1008.5
20260505222517 20 164 6.4 19.3 0.00 0.00 0.00 61 1008.5
20260505221518 20 160 8.0 14.5 0.00 0.00 0.00 60 1008.4
20260505220517 20 176 6.4 14.5 0.00 0.00 0.00 60 1008.4
20260505215520 20 167 8.0 17.7 0.00 0.00 0.00 61 1008.3
20260505214538 20 189 4.8 12.9 0.00 0.00 0.00 61 1008.3
20260505213518 20 188 4.8 16.1 0.00 0.00 0.00 61 1008.2
20260505212518 20 179 6.4 14.5 0.00 0.00 0.00 61 1008.2
20260505211518 20 167 8.0 14.5 0.00 0.00 0.00 61 1008.1
20260505210518 20 163 8.0 14.5 0.00 0.00 0.00 61 1008.2
20260505205519 20 183 4.8 11.3 0.00 0.00 0.00 62 1008.1
20260505204544 20 174 6.4 14.5 0.00 0.00 0.00 62 1008.1
20260505203519 20 165 9.7 16.1 0.00 0.00 0.00 61 1008.1
20260505202519 20 167 6.4 14.5 0.00 0.00 0.00 61 1008.1
20260505201519 21 172 6.4 17.7 0.00 0.00 0.00 60 1008.2
20260505200519 21 175 4.8 12.9 0.00 0.00 0.00 60 1008.4
20260505195600 21 172 8.0 14.5 0.00 0.00 0.00 60 1008.4
20260505194520 21 176 8.0 17.7 0.00 0.00 0.00 60 1008.4
20260505193520 21 173 8.0 16.1 0.00 0.00 0.00 60 1008.5
20260505192520 21 168 8.0 14.5 0.00 0.00 0.00 60 1008.6
20260505191517 21 165 8.0 19.3 0.00 0.00 0.00 61 1008.8
20260505190520 21 173 8.0 16.1 0.00 0.00 0.00 61 1008.9
20260505185520 21 167 8.0 16.1 0.00 0.00 0.00 61 1009.0
20260505184520 21 187 6.4 16.1 0.00 0.00 0.00 59 1009.1
20260505183520 21 176 4.8 12.9 0.00 0.00 0.00 60 1009.0